GAOFEN 9 03

导读

高分九号03星(GAOFEN 9 03)是中国研制的光学遥感卫星,隶属于中国高分辨率对地观测系统重大专项,于2020年6月17日在酒泉卫星发射中心,通过长征二号丁运载火箭以"一箭三星"方式成功发射。该星地面像元分辨率最高可达亚米级,可服务于国土普查、城市规划、防灾减灾等领域,为"一带一路"建设提供信息支撑。

Basic Information
目录编号:
45794
目录名称:
GAOFEN 9 03
国际标识:
2020-039A
轨道中心:
EARTH
卫星名称:
GAOFEN 9 03
卫星全名:
--
卫星状态:
在轨 (已飞行2231 天)
发射日期:
2020-06-17 UTC
国别 :
中国 (CN)
星等 :
--
Orbit Information
数据来源 国际轨道数据 AOE轨道数据
星历时间 2026-07-27T23:12:56+0800
8小时前
查看轨道信息
2026-07-23T05:00:00+0800
5天前
查看轨道信息
半长轴 6844.801km 6845.079km
偏心率 0.0009846 0.0009785
轨道倾角 97.543° 97.542°
近地点辐角 302.009° 318.979°
升交点赤经 343.288° 338.435°
平近点角 58.019° 73.688°
近地点 459.924km 460.244km
远地点 473.404km 473.64km
周期 93.929分钟 93.935分钟
每日圈数 15.330687 15.329753
Detailed Information
使用方式:
暂无
2D Orbit Map
3D Orbit Map
Orbit Altitude Analysis Chart
Orbit Inclination Analysis Chart
Orbit Comprehensive Analysis Chart
View Comprehensive Chart